Terminal Aerodrome Forecast
Issued by NWS Lake Charles, LA

Home | Current Version | Previous Version | Text Only | Print | Product List | Glossary On
Versions: 1 2 3 4 5 6 7 8 9 10 11 12 13 14
250
FTUS44 KLCH 102320
TAFARA
TAF
KARA 102320Z 1100/1124 VRB06KT P6SM SKC
     FM111500 24014G20KT P6SM SKC=

USA.gov is the U.S. government's official web portal to all federal, state and local government web resources and services.